Flag for United Kingdom Weather past 2 weeks in Ely, England, United Kingdom

Now
46 °F

More clouds than sun.


Feels Like: 39 °F
Forecast: 38 / 51 °F
Wind: 17 mph from Southwest

Location: Mildenhall Royal Air Force Base

Current Time: Dec 21, 2014 at 10:57:24 AM

Latest Report: Dec 21, 2014 at 9:58 AM


Visibility: N/A

Pressure: 30.27 "Hg

Humidity: 86%

Dew point: 42 °F

Location of ElyLocation

Historic Weather in Ely — Graph

°F

Ely temperature yesterday

Maximum temperature yesterday: 48 °F (at 12:58 PM)
Minimum temperature yesterday: 41 °F (at 10:58 PM)
Average temperature yesterday: 44 °F

Past Weeks' High & Low Weather Summary

 TemperatureHumidityPressure
High57 °F (Dec 18, 2:03 PM)97% (Dec 15, 9:58 PM)30.41 "Hg (Dec 15, 9:58 PM)
Low28 °F (Dec 9, 5:58 AM)61% (Dec 10, 4:03 PM)29.16 "Hg (Dec 12, 5:58 AM)
Average43 °F85%29.89 "Hg
* Reported Dec 6 9:58 AM — Dec 21 9:03 AM, Ely, Weather by CustomWeather, © 2014

Note: Actual official high and low records may vary slightly from our data, if they occured in-between our weather recording intervals... More about our weather records

Advertising

Ely weather history for previous 24 hours

 ConditionsComfort  
Time TempWeatherWind HumidityBarometerVisibility
9:03 AM
Dec 21
45 °FMore clouds than sun.14 mph87%30.28 "HgN/A
8:58 AM45 °FMostly cloudy.14 mph86%30.29 "HgN/A
7:58 AM44 °FMostly cloudy.14 mph88%30.30 "HgN/A
6:58 AM44 °FOvercast.15 mph88%30.31 "HgN/A
5:58 AM44 °FOvercast.14 mph86%30.32 "HgN/A
4:58 AM43 °FMostly cloudy.10 mph85%30.35 "HgN/A
3:58 AM43 °FOvercast.12 mph81%30.36 "HgN/A
2:58 AM42 °FOvercast.10 mph85%30.37 "HgN/A
1:58 AM42 °FOvercast.8 mph86%30.39 "HgN/A
12:58 AM43 °FOvercast.8 mph85%30.40 "HgN/A
11:58 PM
Dec 20
42 °FOvercast.12 mph86%30.41 "HgN/A
10:58 PM41 °FClear.10 mph88%30.40 "HgN/A
9:58 PM41 °FClear.13 mph85%30.38 "HgN/A
8:58 PM42 °FClear.12 mph83%30.38 "HgN/A
7:58 PM42 °FClear.10 mph82%30.37 "HgN/A
6:58 PM42 °FClear.14 mph82%30.35 "HgN/A
5:58 PM42 °FClear.14 mph82%30.33 "HgN/A
4:58 PM43 °FClear.13 mph81%30.30 "HgN/A
3:58 PM45 °FClear.15 mph75%30.28 "HgN/A
2:58 PM47 °FPartly sunny.14 mph70%30.26 "HgN/A
1:58 PM48 °FSunny.18 mph71%30.23 "HgN/A
12:58 PM48 °FPartly sunny.20 mph70%30.22 "HgN/A
11:58 AM48 °FMostly cloudy.21 mph70%30.22 "HgN/A
10:58 AM47 °FOvercast.23 mph72%30.20 "HgN/A
10:03 AM46 °FOvercast.17 mph71%30.18 "HgN/A
Weather by CustomWeather, © 2014

See weather overviewHow to use our weather pages